TimeCST,TemperatureF,Dew PointF,Humidity,Sea Level PressureIn,VisibilityMPH,Wind Direction,Wind SpeedMPH,Gust SpeedMPH,PrecipitationIn,Events,Conditions,WindDirDegrees,DateUTC
12:13 AM,24.8,23.0,93,29.40,1.8,Calm,Calm,-,N/A,,Overcast,0,2014-01-11 06:13:00
12:32 AM,24.8,23.0,93,29.39,2.0,SW,4.6,-,N/A,,Overcast,230,2014-01-11 06:32:00
12:53 AM,24.8,23.0,93,29.38,2.0,West,5.8,-,N/A,,Overcast,270,2014-01-11 06:53:00
1:13 AM,24.8,23.0,93,29.38,4.0,West,5.8,-,N/A,,Overcast,270,2014-01-11 07:13:00
1:32 AM,24.8,23.0,93,29.37,7.0,West,4.6,-,N/A,,Overcast,270,2014-01-11 07:32:00
1:53 AM,24.8,21.2,86,29.37,7.0,West,5.8,-,N/A,,Overcast,280,2014-01-11 07:53:00
2:13 AM,24.8,23.0,93,29.37,7.0,West,6.9,-,N/A,,Overcast,270,2014-01-11 08:13:00
2:32 AM,24.8,23.0,93,29.37,7.0,West,4.6,-,N/A,,Overcast,280,2014-01-11 08:32:00
2:53 AM,24.8,21.2,86,29.37,7.0,West,5.8,-,N/A,,Overcast,280,2014-01-11 08:53:00
3:12 AM,24.8,23.0,93,29.37,7.0,West,3.5,-,N/A,,Overcast,280,2014-01-11 09:12:00
3:33 AM,24.8,23.0,93,29.37,7.0,Calm,Calm,-,N/A,,Overcast,0,2014-01-11 09:33:00
3:53 AM,24.8,23.0,93,29.37,7.0,Calm,Calm,-,N/A,,Overcast,0,2014-01-11 09:53:00
4:12 AM,24.8,21.2,86,29.36,5.0,Calm,Calm,-,N/A,,Overcast,0,2014-01-11 10:12:00
4:33 AM,24.8,23.0,93,29.36,7.0,Calm,Calm,-,N/A,,Overcast,0,2014-01-11 10:33:00
4:52 AM,24.8,23.0,93,29.36,7.0,Calm,Calm,-,N/A,,Overcast,0,2014-01-11 10:52:00
5:13 AM,24.8,23.0,93,29.36,4.0,Calm,Calm,-,N/A,,Overcast,0,2014-01-11 11:13:00
5:33 AM,24.8,23.0,93,29.36,1.8,Calm,Calm,-,N/A,,Overcast,0,2014-01-11 11:33:00
5:52 AM,24.8,23.0,93,29.35,1.8,Calm,Calm,-,N/A,,Overcast,0,2014-01-11 11:52:00
6:13 AM,24.8,23.0,93,29.36,3.0,West,3.5,-,N/A,,Overcast,260,2014-01-11 12:13:00
6:33 AM,24.8,23.0,93,29.36,2.5,West,4.6,-,N/A,,Overcast,270,2014-01-11 12:33:00
6:52 AM,24.8,24.8,100,29.36,2.5,West,3.5,-,N/A,Snow,Light Snow,270,2014-01-11 12:52:00
7:13 AM,24.8,24.8,100,29.36,4.0,West,4.6,-,N/A,Snow,Light Snow,270,2014-01-11 13:13:00
7:33 AM,24.8,24.8,100,29.36,5.0,West,3.5,-,N/A,Snow,Light Snow,280,2014-01-11 13:33:00
7:52 AM,24.8,24.8,100,29.37,4.0,West,4.6,-,N/A,Snow,Light Snow,270,2014-01-11 13:52:00
8:13 AM,24.8,24.8,100,29.37,3.0,WNW,4.6,-,N/A,Snow,Light Snow,290,2014-01-11 14:13:00
8:33 AM,26.6,24.8,93,29.38,3.0,WNW,4.6,-,N/A,,Overcast,290,2014-01-11 14:33:00
8:53 AM,26.6,24.8,93,29.39,3.0,WNW,6.9,-,N/A,,Overcast,300,2014-01-11 14:53:00
9:13 AM,26.6,24.8,93,29.39,1.5,WNW,5.8,-,N/A,,Overcast,300,2014-01-11 15:13:00
9:32 AM,26.6,24.8,93,29.39,2.5,NW,9.2,-,N/A,,Overcast,320,2014-01-11 15:32:00
9:53 AM,26.6,24.8,93,29.40,4.0,WNW,9.2,-,N/A,,Overcast,300,2014-01-11 15:53:00
10:13 AM,26.6,24.8,93,29.40,4.0,NW,9.2,-,N/A,,Overcast,310,2014-01-11 16:13:00
10:32 AM,26.6,24.8,93,29.41,4.0,WNW,9.2,-,N/A,,Overcast,290,2014-01-11 16:32:00
10:53 AM,26.6,24.8,93,29.42,5.0,WNW,11.5,-,N/A,,Overcast,300,2014-01-11 16:53:00
11:13 AM,26.6,24.8,93,29.41,5.0,WNW,10.4,-,N/A,,Overcast,290,2014-01-11 17:13:00
11:32 AM,26.6,24.8,93,29.41,7.0,WNW,8.1,-,N/A,,Overcast,300,2014-01-11 17:32:00
11:53 AM,26.6,24.8,93,29.41,5.0,WNW,8.1,-,N/A,,Overcast,290,2014-01-11 17:53:00
12:13 PM,26.6,24.8,93,29.40,7.0,WNW,6.9,17.3,N/A,,Overcast,290,2014-01-11 18:13:00
12:32 PM,26.6,23.0,86,29.41,7.0,WNW,8.1,16.1,N/A,,Overcast,290,2014-01-11 18:32:00
12:53 PM,24.8,23.0,93,29.40,7.0,WNW,11.5,17.3,N/A,,Overcast,300,2014-01-11 18:53:00
1:13 PM,24.8,23.0,93,29.41,7.0,WNW,10.4,16.1,N/A,,Overcast,290,2014-01-11 19:13:00
1:32 PM,24.8,21.2,86,29.40,7.0,WNW,12.7,19.6,N/A,,Overcast,290,2014-01-11 19:32:00
1:53 PM,24.8,21.2,86,29.41,7.0,WNW,8.1,16.1,N/A,,Overcast,300,2014-01-11 19:53:00
2:12 PM,24.8,21.2,86,29.41,7.0,West,10.4,-,N/A,,Overcast,270,2014-01-11 20:12:00
2:33 PM,24.8,21.2,86,29.42,10.0,WNW,11.5,18.4,N/A,,Overcast,300,2014-01-11 20:33:00
2:53 PM,24.8,21.2,86,29.43,7.0,WNW,8.1,16.1,N/A,,Overcast,290,2014-01-11 20:53:00
3:12 PM,24.8,21.2,86,29.44,7.0,West,5.8,-,N/A,,Overcast,280,2014-01-11 21:12:00
3:33 PM,23.0,21.2,93,29.45,7.0,WNW,11.5,19.6,N/A,,Overcast,290,2014-01-11 21:33:00
3:53 PM,23.0,21.2,93,29.46,7.0,WNW,6.9,-,N/A,,Overcast,290,2014-01-11 21:53:00
4:12 PM,23.0,21.2,93,29.47,7.0,West,10.4,-,N/A,,Overcast,260,2014-01-11 22:12:00
4:33 PM,21.2,19.4,93,29.48,5.0,West,6.9,-,N/A,,Overcast,260,2014-01-11 22:33:00
4:53 PM,21.2,19.4,93,29.48,7.0,West,9.2,-,N/A,,Overcast,270,2014-01-11 22:53:00
5:13 PM,21.2,19.4,93,29.48,10.0,WNW,10.4,17.3,N/A,,Overcast,290,2014-01-11 23:13:00
5:33 PM,21.2,19.4,93,29.48,10.0,West,9.2,17.3,N/A,,Overcast,280,2014-01-11 23:33:00
5:53 PM,21.2,19.4,93,29.49,10.0,West,9.2,16.1,N/A,,Overcast,280,2014-01-11 23:53:00
6:12 PM,21.2,19.4,93,29.49,10.0,West,12.7,17.3,N/A,,Overcast,280,2014-01-12 00:12:00
6:33 PM,19.4,17.6,93,29.50,10.0,WNW,11.5,18.4,N/A,,Overcast,290,2014-01-12 00:33:00
6:52 PM,19.4,17.6,93,29.50,10.0,West,9.2,19.6,N/A,,Overcast,280,2014-01-12 00:52:00
7:13 PM,19.4,17.6,93,29.50,10.0,West,6.9,-,N/A,,Overcast,280,2014-01-12 01:13:00
7:33 PM,21.2,17.6,86,29.50,10.0,WSW,3.5,-,N/A,,Overcast,250,2014-01-12 01:33:00
7:52 PM,19.4,17.6,93,29.50,10.0,WSW,10.4,-,N/A,,Overcast,250,2014-01-12 01:52:00
8:13 PM,19.4,17.6,93,29.51,10.0,West,8.1,-,N/A,,Overcast,270,2014-01-12 02:13:00
8:33 PM,19.4,17.6,93,29.52,10.0,WNW,11.5,18.4,N/A,,Overcast,290,2014-01-12 02:33:00
8:52 PM,19.4,17.6,93,29.52,10.0,West,8.1,-,N/A,,Overcast,260,2014-01-12 02:52:00
9:13 PM,19.4,17.6,93,29.52,10.0,West,5.8,-,N/A,,Overcast,270,2014-01-12 03:13:00
9:33 PM,19.4,17.6,93,29.51,10.0,West,6.9,-,N/A,,Overcast,280,2014-01-12 03:33:00
9:52 PM,19.4,17.6,93,29.51,10.0,West,4.6,-,N/A,,Overcast,260,2014-01-12 03:52:00
10:13 PM,19.4,17.6,93,29.49,10.0,Calm,Calm,-,N/A,,Overcast,0,2014-01-12 04:13:00
10:33 PM,19.4,17.6,93,29.49,10.0,Calm,Calm,-,N/A,,Overcast,0,2014-01-12 04:33:00
10:53 PM,19.4,17.6,93,29.49,10.0,Calm,Calm,-,N/A,,Overcast,0,2014-01-12 04:53:00
11:13 PM,19.4,17.6,93,29.49,10.0,WSW,5.8,-,N/A,,Overcast,250,2014-01-12 05:13:00
11:33 PM,19.4,17.6,93,29.49,10.0,WSW,3.5,-,N/A,,Overcast,250,2014-01-12 05:33:00
11:52 PM,19.4,19.4,100,29.49,10.0,WSW,5.8,-,N/A,,Overcast,240,2014-01-12 05:52:00